FW7194 Weather Reports


Display with metric or nautical units.
time (UTC)temp
F
wind
direction
speed
MPH
gust
MPH
rain 1hr
in
rain 24hr
in
rain mn
in
humidity
%
barometer
mb
20260505092446 56 208 0.0 0.0 0.00 0.00 0.00 92 1015.2
20260505091944 56 210 0.0 0.0 0.00 0.00 0.00 92 1015.0
20260505091441 56 205 0.0 0.0 0.00 0.00 0.00 92 1015.1
20260505090939 56 206 0.0 0.0 0.00 0.00 0.00 92 1014.9
20260505090437 56 206 0.0 0.0 0.00 0.00 0.00 92 1014.8
20260505085934 56 205 0.0 0.0 0.00 0.00 0.00 92 1014.9
20260505085432 56 205 0.0 0.0 0.00 0.00 0.00 92 1014.9
20260505084930 56 205 0.0 0.0 0.00 0.00 0.00 92 1014.9
20260505084428 56 205 0.0 0.0 0.00 0.00 0.00 92 1014.6
20260505083926 56 205 0.0 0.0 0.00 0.00 0.00 92 1015.0
20260505083423 56 203 0.0 0.0 0.00 0.00 0.00 92 1014.9
20260505082919 56 203 0.0 0.0 0.00 0.00 0.00 91 1014.6
20260505082415 56 220 0.0 0.0 0.00 0.00 0.00 91 1014.6
20260505081912 57 220 0.0 0.0 0.00 0.00 0.00 91 1014.8
20260505081409 57 220 0.0 0.0 0.00 0.00 0.00 91 1014.8
20260505080905 57 205 0.0 0.0 0.00 0.00 0.00 91 1014.7
20260505080401 57 201 0.0 0.0 0.00 0.00 0.00 91 1014.6
20260505075857 57 201 0.0 0.0 0.00 0.00 0.00 91 1014.7
20260505075354 57 201 0.0 0.0 0.00 0.00 0.00 91 1014.4
20260505074851 57 201 0.0 0.0 0.00 0.00 0.00 91 1014.7
20260505074348 57 203 0.0 0.0 0.00 0.00 0.00 91 1014.6
20260505073846 57 203 0.0 0.0 0.00 0.00 0.00 91 1014.5
20260505073343 57 203 0.0 0.0 0.00 0.00 0.00 91 1014.3
20260505072840 57 203 0.0 0.0 0.00 0.00 0.00 91 1014.5
20260505072336 57 203 0.0 0.0 0.00 0.00 0.00 91 1014.5
20260505071832 57 197 0.0 0.0 0.00 0.00 0.00 91 1014.4
20260505071329 57 192 0.0 1.0 0.00 0.00 0.00 90 1014.5
20260505070827 57 203 0.0 0.0 0.00 0.00 0.00 90 1014.6
20260505070323 57 203 1.0 2.0 0.00 0.00 0.00 90 1014.6
20260505065819 57 201 0.0 0.0 0.00 0.00 0.00 90 1014.7
20260505065316 57 201 0.0 0.0 0.00 0.00 0.00 90 1014.5
20260505064813 57 201 0.0 0.0 0.00 0.00 0.00 90 1014.7
20260505064310 57 201 0.0 1.0 0.00 0.00 0.00 90 1014.9
20260505063808 57 201 0.0 0.0 0.00 0.00 0.00 90 1014.8
20260505063304 57 201 0.0 0.0 0.00 0.00 0.00 90 1014.9
20260505062800 57 201 0.0 1.0 0.00 0.00 0.00 90 1015.0
20260505062258 57 201 0.0 1.0 0.00 0.00 0.00 89 1015.0
20260505061754 57 209 0.0 0.0 0.00 0.00 0.00 89 1015.2
20260505061253 57 210 0.0 1.0 0.00 0.00 0.00 89 1015.2
20260505060750 57 191 0.0 0.0 0.00 0.00 0.00 89 1015.3
20260505060247 57 203 0.0 0.0 0.00 0.00 0.00 89 1015.2
20260505055741 57 199 0.0 1.0 0.00 0.00 0.00 89 1015.5
20260505055233 57 206 0.0 0.0 0.00 0.00 0.00 88 1015.5
20260505054730 57 209 0.0 1.0 0.00 0.00 0.00 88 1015.3
20260505054228 57 207 0.0 1.0 0.00 0.00 0.00 88 1015.3
20260505053726 57 197 0.0 1.0 0.00 0.00 0.00 87 1015.6
20260505053222 57 203 1.0 2.0 0.00 0.00 0.00 87 1015.7
20260505052720 57 203 0.0 1.0 0.00 0.00 0.00 87 1015.9
20260505052216 57 204 0.0 2.0 0.00 0.00 0.00 87 1015.8
20260505051713 57 201 0.0 2.0 0.00 0.00 0.00 86 1016.0
20260505051206 57 207 1.0 1.0 0.00 0.00 0.00 86 1015.9
20260505050703 57 203 0.0 0.0 0.00 0.00 0.00 86 1015.9
20260505050201 58 197 0.0 0.0 0.00 0.00 0.00 85 1015.8
20260505041631 58 198 0.0 0.0 0.00 0.00 0.00 83 1015.8
20260505041128 58 198 0.0 0.0 0.00 0.00 0.00 83 1016.2
20260505040625 58 198 0.0 0.0 0.00 0.00 0.00 83 1016.0
20260505040122 58 197 0.0 0.0 0.00 0.00 0.00 82 1015.9
20260505035618 59 197 0.0 0.0 0.00 0.00 0.00 82 1016.0
20260505035115 59 199 0.0 0.0 0.00 0.00 0.00 82 1015.9
20260505034612 59 198 0.0 0.0 0.00 0.00 0.00 81 1015.9
20260505034108 59 199 0.0 0.0 0.00 0.00 0.00 81 1016.0
20260505033604 59 199 0.0 0.0 0.00 0.00 0.00 81 1016.0
20260505033103 59 199 0.0 0.0 0.00 0.00 0.00 80 1015.9
20260505032600 59 199 0.0 0.0 0.00 0.00 0.00 80 1015.9
20260505032056 59 199 0.0 0.0 0.00 0.00 0.00 79 1016.1
20260505031554 60 199 0.0 0.0 0.00 0.00 0.00 79 1016.1
20260505031050 60 197 0.0 0.0 0.00 0.00 0.00 79 1016.0
20260505030548 60 199 0.0 0.0 0.00 0.00 0.00 78 1016.3
20260505030044 60 199 0.0 0.0 0.00 0.00 0.00 78 1016.1
20260505025540 60 197 0.0 0.0 0.00 0.00 0.00 77 1016.0
20260505025039 60 199 0.0 0.0 0.00 0.00 0.00 77 1015.9
20260505024535 60 197 0.0 0.0 0.00 0.00 0.00 77 1015.8
20260505024033 61 197 0.0 0.0 0.00 0.00 0.00 76 1015.8
20260505023530 61 199 0.0 0.0 0.00 0.00 0.00 76 1015.9
20260505023027 61 199 0.0 0.0 0.00 0.00 0.00 75 1016.0
20260505022524 61 199 0.0 0.0 0.00 0.00 0.00 75 1016.0
20260505022022 62 199 0.0 0.0 0.00 0.00 0.00 75 1015.8
20260505021518 62 199 0.0 0.0 0.00 0.00 0.00 74 1015.8
20260505021014 62 199 0.0 0.0 0.00 0.00 0.00 73 1015.7
20260505020509 62 199 0.0 0.0 0.00 0.00 0.00 73 1015.9
20260505020006 62 197 0.0 1.0 0.00 0.00 0.00 72 1015.9
20260505015503 63 197 0.0 1.0 0.00 0.00 0.00 71 1015.7
20260505015000 63 203 0.0 1.0 0.00 0.00 0.00 71 1015.9
20260505014457 63 203 0.0 1.0 0.00 0.00 0.00 71 1015.9
20260505013954 64 201 0.0 0.0 0.00 0.00 0.00 70 1015.6
20260505013451 64 201 1.0 1.0 0.00 0.00 0.00 69 1016.0
20260505012948 64 204 1.0 2.0 0.00 0.00 0.00 68 1015.9
20260505012447 64 204 1.0 1.0 0.00 0.00 0.00 68 1015.6
20260505011943 64 206 0.0 1.0 0.00 0.00 0.00 67 1015.8
20260505011439 65 205 1.0 2.0 0.00 0.00 0.00 67 1015.6
20260505010936 65 206 0.0 0.0 0.00 0.00 0.00 66 1015.6
20260505010432 65 206 0.0 0.0 0.00 0.00 0.00 65 1015.6
20260505005928 66 206 0.0 2.0 0.00 0.00 0.00 65 1015.6
20260505005425 66 198 2.0 2.0 0.00 0.00 0.00 64 1015.3
20260505004923 66 192 3.0 5.0 0.00 0.00 0.00 63 1015.3
20260505004419 66 206 1.0 3.0 0.00 0.00 0.00 63 1015.5
20260505003916 66 199 1.0 3.0 0.00 0.00 0.00 62 1015.4
20260505003413 67 197 2.0 5.0 0.00 0.00 0.00 61 1015.4
20260505002909 67 199 2.0 6.0 0.00 0.00 0.00 61 1015.4
20260505002406 67 186 2.0 6.0 0.00 0.00 0.00 60 1015.4
20260505001904 68 196 1.0 2.0 0.00 0.00 0.00 59 1015.2
20260505001401 68 185 3.0 5.0 0.00 0.00 0.00 59 1015.4
20260505000858 68 203 2.0 3.0 0.00 0.00 0.00 58 1015.6
20260505000358 68 204 3.0 5.0 0.00 0.00 0.00 57 1015.4
20260504235853 68 192 2.0 3.0 0.00 0.00 0.00 57 1015.3
20260504235350 69 201 3.0 5.0 0.00 0.00 0.00 56 1015.4
20260504234846 69 192 3.0 5.0 0.00 0.00 0.00 56 1015.4
20260504234344 69 196 5.0 6.0 0.00 0.00 0.00 55 1015.4
20260504233840 69 187 4.0 7.0 0.00 0.00 0.00 55 1015.2
20260504233336 69 216 3.0 9.0 0.00 0.00 0.00 55 1015.3
20260504232833 69 189 4.0 7.0 0.00 0.00 0.00 55 1015.3
20260504232330 70 186 6.0 9.0 0.00 0.00 0.00 54 1015.0
20260504231827 70 190 5.0 9.0 0.00 0.00 0.00 54 1015.3
20260504231323 70 185 12.0 14.0 0.00 0.00 0.00 54 1015.2
20260504230819 70 184 5.0 14.0 0.00 0.00 0.00 54 1015.2
20260504230318 70 199 7.0 13.0 0.00 0.00 0.00 53 1015.0
20260504225816 70 205 11.0 16.0 0.00 0.00 0.00 53 1015.4
20260504225312 70 206 12.0 16.0 0.00 0.00 0.00 52 1015.4
20260504224810 70 184 7.0 11.0 0.00 0.00 0.00 52 1015.2
20260504224306 71 215 9.0 16.0 0.00 0.00 0.00 52 1015.2
20260504223803 71 204 6.0 14.0 0.00 0.00 0.00 51 1015.3
20260504223258 71 211 9.0 11.0 0.00 0.00 0.00 51 1015.2
20260504222755 71 255 7.0 11.0 0.00 0.00 0.00 52 1015.5
20260504222252 71 187 8.0 16.0 0.00 0.00 0.00 52 1015.5
20260504221750 71 197 5.0 9.0 0.00 0.00 0.00 52 1015.4
20260504221247 71 132 6.0 8.0 0.00 0.00 0.00 52 1015.6
20260504220743 71 177 5.0 13.0 0.00 0.00 0.00 52 1015.5
20260504220240 71 178 4.0 26.0 0.00 0.00 0.00 53 1015.5
20260504215738 71 187 7.0 15.0 0.00 0.00 0.00 53 1015.4
20260504215234 71 210 9.0 11.0 0.00 0.00 0.00 53 1015.3
20260504214730 71 208 5.0 11.0 0.00 0.00 0.00 53 1015.2
20260504214227 71 208 6.0 10.0 0.00 0.00 0.00 52 1015.3
20260504213724 71 193 6.0 11.0 0.00 0.00 0.00 52 1015.4
20260504213220 71 145 7.0 11.0 0.00 0.00 0.00 52 1015.3
20260504212717 72 185 6.0 13.0 0.00 0.00 0.00 52 1015.3
20260504212214 72 208 13.0 16.0 0.00 0.00 0.00 52 1015.3
20260504211711 72 175 7.0 16.0 0.00 0.00 0.00 51 1015.2
20260504211207 72 174 8.0 9.0 0.00 0.00 0.00 52 1015.3
20260504210705 72 181 8.0 15.0 0.00 0.00 0.00 50 1015.3
20260504210202 72 173 11.0 15.0 0.00 0.00 0.00 50 1015.2
20260504205659 72 194 9.0 11.0 0.00 0.00 0.00 53 1015.1
20260504205155 72 204 8.0 13.0 0.00 0.00 0.00 51 1015.2
20260504204654 73 172 12.0 16.0 0.00 0.00 0.00 50 1015.2
20260504204153 73 134 4.0 13.0 0.00 0.00 0.00 52 1015.3
20260504203651 73 187 5.0 14.0 0.00 0.00 0.00 51 1015.5
20260504203149 73 191 4.0 13.0 0.00 0.00 0.00 52 1015.4
20260504202648 73 154 7.0 10.0 0.00 0.00 0.00 51 1015.5
20260504202146 73 213 3.0 13.0 0.00 0.00 0.00 50 1015.6
20260504201643 73 237 9.0 15.0 0.00 0.00 0.00 50 1015.7
20260504201141 73 232 8.0 13.0 0.00 0.00 0.00 50 1015.5
20260504200638 73 243 9.0 13.0 0.00 0.00 0.00 49 1015.5
20260504200134 73 180 8.0 16.0 0.00 0.00 0.00 49 1015.6
20260504195630 73 209 5.0 9.0 0.00 0.00 0.00 51 1015.6
20260504195126 73 204 5.0 13.0 0.00 0.00 0.00 50 1015.8
20260504194623 73 218 4.0 9.0 0.00 0.00 0.00 51 1015.9
20260504194119 73 173 6.0 13.0 0.00 0.00 0.00 51 1016.0
20260504193616 74 189 10.0 13.0 0.00 0.00 0.00 52 1015.9
20260504193114 74 173 10.0 13.0 0.00 0.00 0.00 52 1015.9
20260504192612 74 227 12.0 16.0 0.00 0.00 0.00 53 1015.9
20260504192110 74 204 8.0 16.0 0.00 0.00 0.00 52 1016.1
20260504191608 74 197 4.0 9.0 0.00 0.00 0.00 50 1015.9
20260504191104 74 206 7.0 9.0 0.00 0.00 0.00 53 1016.2
20260504190600 74 191 7.0 14.0 0.00 0.00 0.00 51 1016.0
20260504190056 74 169 10.0 13.0 0.00 0.00 0.00 51 1016.0
20260504185553 74 192 7.0 13.0 0.00 0.00 0.00 49 1016.0
20260504185050 74 207 7.0 11.0 0.00 0.00 0.00 50 1016.0
20260504184545 74 214 10.0 16.0 0.00 0.00 0.00 48 1016.3
20260504184041 74 216 7.0 16.0 0.00 0.00 0.00 49 1016.3
20260504183538 74 143 7.0 15.0 0.00 0.00 0.00 49 1016.3
20260504183036 74 201 8.0 16.0 0.00 0.00 0.00 49 1016.3
20260504182533 74 204 6.0 10.0 0.00 0.00 0.00 49 1016.3
20260504182030 74 195 4.0 13.0 0.00 0.00 0.00 49 1016.5
20260504181527 74 201 12.0 16.0 0.00 0.00 0.00 49 1016.3
20260504181026 75 232 7.0 15.0 0.00 0.00 0.00 49 1016.4
20260504180524 75 201 8.0 13.0 0.00 0.00 0.00 50 1016.3
20260504180023 75 205 7.0 9.0 0.00 0.00 0.00 52 1016.1
20260504175519 75 191 11.0 14.0 0.00 0.00 0.00 51 1016.2
20260504175017 75 206 6.0 11.0 0.00 0.00 0.00 51 1016.2
20260504174514 75 165 9.0 11.0 0.00 0.00 0.00 51 1016.3
20260504174011 75 205 11.0 16.0 0.00 0.00 0.00 52 1016.3
20260504173508 75 197 9.0 11.0 0.00 0.00 0.00 52 1016.3
20260504173005 75 182 11.0 17.0 0.00 0.00 0.00 51 1016.1
20260504172501 75 199 5.0 8.0 0.00 0.00 0.00 52 1016.2
20260504171957 75 210 5.0 10.0 0.00 0.00 0.00 51 1016.2
20260504171455 75 221 8.0 16.0 0.00 0.00 0.00 51 1016.4
20260504170951 76 193 7.0 15.0 0.00 0.00 0.00 50 1016.5
20260504170447 76 239 5.0 14.0 0.00 0.00 0.00 51 1016.5
20260504160408 76 187 1.0 3.0 0.00 0.00 0.00 45 1016.8
20260504150831 75 191 2.0 3.0 0.00 0.00 0.00 56 1017.0
20260504150328 75 181 2.0 7.0 0.00 0.00 0.00 56 1017.1
20260504141258 72 165 1.0 7.0 0.00 0.00 0.00 64 1016.9
20260504140755 72 158 0.0 2.0 0.00 0.00 0.00 64 1017.1
20260504140250 72 181 1.0 5.0 0.00 0.00 0.00 66 1017.2
20260504130719 65 176 2.0 3.0 0.00 0.00 0.00 91 1017.1
20260504130215 64 126 0.0 1.0 0.00 0.00 0.00 94 1017.2
20260504120139 53 132 0.0 0.0 0.00 0.00 0.00 97 1016.9
20260504110606 50 208 0.0 0.0 0.00 0.00 0.00 96 1016.4
20260504100528 50 208 0.0 0.0 0.00 0.00 0.00 95 1016.3